Location: Bremen
(53.0793°N, 8.8017°E)
Time: 23:21:55
(UTC+02:00)

Vanguard 2 Rocket - Pass Details

Date: 21 April 2024
Orbit: 556 x 3304 km, 32.9° (Epoch: 20 May)

Event Time Altitude Azimuth Distance (km) Brightness Sun altitude
Rises 20:31:47 0° 191° (S) 5,849 10.9 -0.2°
Reaches altitude 10° 20:37:07 10° 174° (S) 5,299 10.5 -0.9°
Maximum altitude 20:46:57 19° 137° (SE) 5,178 10.2 -2.3°
Drops below altitude 10° 20:58:16 10° 102° (ESE) 6,248 10.5 -3.8°
Sets 21:05:25 0° 88° (E) 7,265 11.0 -4.8°
